ATLAS 5 CENTAUR DEB, 44684

Orbit data source: Space-Track

ATLAS 5 CENTAUR DEB, 44684 is space debris in HEO originally from a launch on Wed, 17 Oct 2018 UTC launched from the Air Force Eastern Test Range (AFETR). Debris objects in space refer to the collection of defunct objects orbiting the Earth. Examples of debris include non-operational satellites, rocket bodies, and fragments generated from explosions, collisions, or faulty payload assembly.

Loading next visibility...
Identifier
44684, 2018-079AW
Orbit
HEO
Country
Flag of USUS
Related business
Flag of USUnited Launch Alliance/Lockheed Martin (US)
Manufacturer
ULA Decatur
Mission
Spacecraft
Bus & Motor
Unknown
Mass
Unknown
Launch date (UTC)
2018-10-17 (8 years ago)
Launch vehicle
Unknown
Launch site
Air Force Eastern Test Range (AFETR)
Object type
Payload
Rocket body
Debris
Shape & HBR
Unknown shape, 1.1 m
Radar Cross Section
Medium (>0.1 m² and <1 m²)

Expand to show TLE details & history
Last TLE update: 2 days ago

TLE from 2 days ago
0 ATLAS 5 CENTAUR DEB
1 44684U 18079AW  26253.85037219 -.00000196  00000-0  00000-0 0  9991
2 44684  13.4044  26.6981 4652052 333.5619   8.6571  1.83119012 48634
Epoch: 2026-09-10T20:24Z
TLE epoch observation values (Epoch: 2026-09-10T20:24:32.157Z)
Latitude
-0.00015°
Longitude
90.71655°
Altitude
9,203.897 km
Speed
6.086 km/s
True Right ascension
01h 46m 55s
True Declination
0° 00' 01"
Sunlit
Object was in daylight at epoch
Visualization orbit readout
Latitude
Unknown
Longitude
Unknown
Altitude
Unknown
Speed
Unknown
Apparent Right ascension
Unknown
Apparent Declination
Unknown
Sunlit
N/A
Visualization observer readout
Local Sidereal Time
17:12:02
Azimuth
Unknown
Elevation
Unknown
Doppler factor
Unknown
Orbital elements
Apogee altitude
34,975.156 km
Perigee altitude
8,715.671 km
Semi-major axis
28,223.551 km
Eccentricity
0.46521
Inclination
13.4044°
RAAN
26.6981°
Arg. of periapsis
333.5619°
True anomaly
26.2028°
Mean anomaly
8.6571°
Eccentric anomaly
16.00727°
Mean motion
0.45775 °/min
Orbital period
786.46 mins
BSTAR
0
Loading maneuver chart data...
Computing Atmospheric mass density...

Documentation

Showing up to 5 results
|